Time,TemperatureF,DewpointF,PressureIn,WindDirection,WindDirectionDegrees,WindSpeedMPH,WindSpeedGustMPH,Humidity,HourlyPrecipIn,Conditions,Clouds,dailyrainin,SoftwareType,DateUTC
2013-08-13 00:01:00,79.4,75.2,29.97,WSW,250,1.0,3.0,87,0.67,,---,0.00,VWS V14.01,2013-08-13 04:01:00,
2013-08-13 00:06:00,79.2,75.0,29.97,WSW,256,1.0,2.0,87,0.67,,---,0.00,VWS V14.01,2013-08-13 04:06:00,
2013-08-13 00:11:00,79.1,74.9,29.97,West,259,2.0,2.0,87,0.67,,---,0.00,VWS V14.01,2013-08-13 04:11:00,
2013-08-13 00:16:00,79.1,74.9,29.97,West,281,2.0,3.0,87,0.67,,---,0.00,VWS V14.01,2013-08-13 04:16:00,
2013-08-13 00:21:00,79.0,75.2,29.96,SW,226,2.0,5.0,88,0.67,,---,0.00,VWS V14.01,2013-08-13 04:21:00,
2013-08-13 00:26:00,78.8,74.9,29.96,West,263,1.0,2.0,88,0.67,,---,0.00,VWS V14.01,2013-08-13 04:26:00,
2013-08-13 00:31:00,78.7,74.8,29.96,SW,226,1.0,1.0,88,0.67,,---,0.00,VWS V14.01,2013-08-13 04:31:00,
2013-08-13 00:36:00,78.5,74.7,29.97,SW,214,0.0,0.0,88,0.00,,---,0.00,VWS V14.01,2013-08-13 04:36:00,
2013-08-13 00:41:00,78.5,75.0,29.97,SW,214,0.0,0.0,89,0.00,,---,0.00,VWS V14.01,2013-08-13 04:41:00,
2013-08-13 00:46:00,78.3,74.8,29.98,West,276,3.0,4.0,89,0.00,,---,0.00,VWS V14.01,2013-08-13 04:46:00,
2013-08-13 00:51:00,78.2,74.7,29.97,WSW,247,1.0,2.0,89,0.00,,---,0.00,VWS V14.01,2013-08-13 04:51:00,
2013-08-13 00:56:00,78.1,74.6,29.98,West,273,1.0,1.0,89,0.00,,---,0.00,VWS V14.01,2013-08-13 04:56:00,
2013-08-13 01:01:00,77.9,74.4,29.98,NNW,330,1.0,5.0,89,0.00,,---,0.00,VWS V14.01,2013-08-13 05:01:00,
2013-08-13 01:06:00,77.7,74.2,29.98,West,274,4.0,4.0,89,0.00,,---,0.00,VWS V14.01,2013-08-13 05:06:00,
2013-08-13 01:11:00,77.4,73.9,29.98,NW,305,2.0,4.0,89,0.00,,---,0.00,VWS V14.01,2013-08-13 05:11:00,
2013-08-13 01:16:00,77.2,73.7,29.99,NW,323,2.0,3.0,89,0.00,,---,0.00,VWS V14.01,2013-08-13 05:16:00,
2013-08-13 01:20:00,77.1,73.6,29.99,West,279,1.0,2.0,89,0.00,,---,0.00,VWS V14.01,2013-08-13 05:20:00,
2013-08-13 01:25:00,77.0,73.5,29.98,North,360,2.0,2.0,89,0.00,,---,0.00,VWS V14.01,2013-08-13 05:25:00,
2013-08-13 01:30:00,76.9,73.4,29.98,NNW,340,0.0,1.0,89,0.00,,---,0.00,VWS V14.01,2013-08-13 05:30:00,
2013-08-13 01:35:00,76.7,73.2,29.97,WNW,291,0.0,1.0,89,0.00,,---,0.00,VWS V14.01,2013-08-13 05:35:00,
2013-08-13 01:40:00,76.6,73.4,29.97,WNW,291,0.0,0.0,90,0.00,,---,0.00,VWS V14.01,2013-08-13 05:40:00,
2013-08-13 01:45:00,76.5,73.3,29.97,WNW,291,0.0,0.0,90,0.00,,---,0.00,VWS V14.01,2013-08-13 05:45:00,
2013-08-13 01:50:00,76.3,73.2,29.96,WNW,291,1.0,1.0,90,0.00,,---,0.00,VWS V14.01,2013-08-13 05:50:00,
2013-08-13 01:55:00,76.2,73.4,29.96,WNW,291,0.0,0.0,91,0.00,,---,0.00,VWS V14.01,2013-08-13 05:55:00,
2013-08-13 02:00:00,76.1,73.3,29.96,WNW,291,0.0,0.0,91,0.00,,---,0.00,VWS V14.01,2013-08-13 06:00:00,
2013-08-13 02:05:00,76.0,73.2,29.96,WNW,291,1.0,1.0,91,0.00,,---,0.00,VWS V14.01,2013-08-13 06:05:00,
2013-08-13 02:10:00,75.9,73.4,29.96,NW,321,0.0,1.0,92,0.00,,---,0.00,VWS V14.01,2013-08-13 06:10:00,
2013-08-13 02:15:00,75.9,73.4,29.96,NNW,333,0.0,0.0,92,0.00,,---,0.00,VWS V14.01,2013-08-13 06:15:00,
2013-08-13 02:20:00,75.9,73.4,29.96,WSW,240,0.0,0.0,92,0.00,,---,0.00,VWS V14.01,2013-08-13 06:20:00,
2013-08-13 02:25:00,75.8,73.3,29.95,WSW,239,0.0,0.0,92,0.00,,---,0.00,VWS V14.01,2013-08-13 06:25:00,
2013-08-13 02:30:00,75.7,73.2,29.95,WSW,240,0.0,0.0,92,0.00,,---,0.00,VWS V14.01,2013-08-13 06:30:00,
2013-08-13 02:35:00,75.7,73.2,29.95,WSW,240,0.0,0.0,92,0.00,,---,0.00,VWS V14.01,2013-08-13 06:35:00,
2013-08-13 02:40:00,75.7,73.2,29.95,WSW,240,0.0,0.0,92,0.00,,---,0.00,VWS V14.01,2013-08-13 06:40:00,
2013-08-13 02:45:00,75.6,73.1,29.96,WSW,248,0.0,0.0,92,0.00,,---,0.00,VWS V14.01,2013-08-13 06:45:00,
2013-08-13 02:50:00,75.6,73.4,29.96,WSW,244,0.0,0.0,93,0.00,,---,0.00,VWS V14.01,2013-08-13 06:50:00,
2013-08-13 02:55:00,75.6,73.4,29.96,West,260,2.0,2.0,93,0.00,,---,0.00,VWS V14.01,2013-08-13 06:55:00,
2013-08-13 03:00:00,75.6,73.4,29.98,West,267,7.0,8.0,93,0.00,,---,0.00,VWS V14.01,2013-08-13 07:00:00,
2013-08-13 03:05:00,75.5,73.3,29.97,WSW,257,9.0,10.0,93,0.00,,---,0.00,VWS V14.01,2013-08-13 07:05:00,
2013-08-13 03:10:00,75.5,73.0,29.97,West,265,4.0,7.0,92,0.00,,---,0.00,VWS V14.01,2013-08-13 07:10:00,
2013-08-13 03:15:00,75.4,72.6,29.96,WSW,254,4.0,4.0,91,0.03,,---,0.03,VWS V14.01,2013-08-13 07:15:00,
2013-08-13 03:20:00,75.1,72.0,29.95,WNW,290,3.0,3.0,90,0.03,,---,0.03,VWS V14.01,2013-08-13 07:20:00,
2013-08-13 03:25:00,75.0,72.2,29.95,West,276,1.0,1.0,91,0.03,,---,0.03,VWS V14.01,2013-08-13 07:25:00,
2013-08-13 03:30:00,74.8,72.0,29.95,WSW,257,1.0,4.0,91,0.04,,---,0.04,VWS V14.01,2013-08-13 07:30:00,
2013-08-13 03:35:00,74.6,71.8,29.95,West,269,1.0,2.0,91,0.04,,---,0.04,VWS V14.01,2013-08-13 07:35:00,
2013-08-13 03:40:00,74.5,71.7,29.94,West,281,1.0,1.0,91,0.04,,---,0.04,VWS V14.01,2013-08-13 07:40:00,
2013-08-13 03:45:00,74.4,71.6,29.94,SW,215,0.0,0.0,91,0.05,,---,0.05,VWS V14.01,2013-08-13 07:45:00,
2013-08-13 03:50:00,74.3,71.8,29.94,SSW,209,0.0,0.0,92,0.07,,---,0.07,VWS V14.01,2013-08-13 07:50:00,
2013-08-13 03:55:00,74.2,72.1,29.93,ESE,114,1.0,1.0,93,0.08,,---,0.08,VWS V14.01,2013-08-13 07:55:00,
2013-08-13 04:00:00,74.0,71.8,29.93,ESE,115,1.0,1.0,93,0.09,,---,0.09,VWS V14.01,2013-08-13 08:00:00,
2013-08-13 04:05:00,73.9,71.8,29.92,East,86,1.0,1.0,93,0.10,,---,0.10,VWS V14.01,2013-08-13 08:05:00,
2013-08-13 04:10:00,73.7,71.6,29.92,East,86,0.0,0.0,93,0.10,,---,0.10,VWS V14.01,2013-08-13 08:10:00,
2013-08-13 04:15:00,73.5,71.7,29.92,East,86,0.0,0.0,94,0.07,,---,0.10,VWS V14.01,2013-08-13 08:15:00,
2013-08-13 04:20:00,73.5,71.7,29.92,East,86,0.0,0.0,94,0.07,,---,0.10,VWS V14.01,2013-08-13 08:20:00,
2013-08-13 04:25:00,73.4,71.6,29.92,East,86,0.0,0.0,94,0.07,,---,0.10,VWS V14.01,2013-08-13 08:25:00,
2013-08-13 04:30:00,73.3,71.5,29.91,East,86,0.0,0.0,94,0.06,,---,0.10,VWS V14.01,2013-08-13 08:30:00,
2013-08-13 04:35:00,73.2,71.4,29.91,East,86,0.0,0.0,94,0.06,,---,0.10,VWS V14.01,2013-08-13 08:35:00,
2013-08-13 04:40:00,73.2,71.7,29.91,East,86,0.0,0.0,95,0.06,,---,0.10,VWS V14.01,2013-08-13 08:40:00,
2013-08-13 04:45:00,73.2,71.7,29.91,East,86,0.0,0.0,95,0.05,,---,0.10,VWS V14.01,2013-08-13 08:45:00,
2013-08-13 04:50:00,73.2,71.7,29.91,East,86,0.0,0.0,95,0.03,,---,0.10,VWS V14.01,2013-08-13 08:50:00,
2013-08-13 04:55:00,73.1,71.6,29.90,East,86,0.0,0.0,95,0.02,,---,0.10,VWS V14.01,2013-08-13 08:55:00,
2013-08-13 05:00:00,73.1,71.6,29.90,East,86,0.0,0.0,95,0.01,,---,0.10,VWS V14.01,2013-08-13 09:00:00,
2013-08-13 05:05:00,73.0,71.5,29.90,East,86,0.0,0.0,95,0.00,,---,0.10,VWS V14.01,2013-08-13 09:05:00,
2013-08-13 05:10:00,73.1,71.6,29.90,East,86,0.0,0.0,95,0.00,,---,0.10,VWS V14.01,2013-08-13 09:10:00,
2013-08-13 05:15:00,73.1,71.6,29.90,East,90,0.0,1.0,95,0.00,,---,0.10,VWS V14.01,2013-08-13 09:15:00,
2013-08-13 05:20:00,73.1,71.6,29.90,SSE,150,0.0,0.0,95,0.00,,---,0.10,VWS V14.01,2013-08-13 09:20:00,
2013-08-13 05:25:00,73.1,71.6,29.90,SSE,150,0.0,0.0,95,0.00,,---,0.10,VWS V14.01,2013-08-13 09:25:00,
2013-08-13 05:30:00,73.2,72.0,29.90,WSW,249,0.0,0.0,96,0.00,,---,0.10,VWS V14.01,2013-08-13 09:30:00,
2013-08-13 05:35:00,73.1,71.9,29.90,WSW,247,0.0,0.0,96,0.00,,---,0.10,VWS V14.01,2013-08-13 09:35:00,
2013-08-13 05:40:00,73.1,71.9,29.90,SW,233,0.0,0.0,96,0.00,,---,0.10,VWS V14.01,2013-08-13 09:40:00,
2013-08-13 05:45:00,73.1,71.9,29.90,SW,232,0.0,0.0,96,0.00,,---,0.10,VWS V14.01,2013-08-13 09:45:00,
2013-08-13 05:50:00,73.1,71.9,29.90,SW,215,0.0,0.0,96,0.00,,---,0.10,VWS V14.01,2013-08-13 09:50:00,
2013-08-13 05:55:00,73.1,71.9,29.90,West,263,1.0,2.0,96,0.00,,---,0.10,VWS V14.01,2013-08-13 09:55:00,
2013-08-13 06:00:00,73.1,71.9,29.90,West,262,1.0,1.0,96,0.00,,---,0.10,VWS V14.01,2013-08-13 10:00:00,
2013-08-13 06:05:00,73.1,71.9,29.90,South,169,1.0,2.0,96,0.00,,---,0.10,VWS V14.01,2013-08-13 10:05:00,
2013-08-13 06:10:00,73.1,71.9,29.90,SSW,200,1.0,1.0,96,0.00,,---,0.10,VWS V14.01,2013-08-13 10:10:00,
2013-08-13 06:15:00,73.2,72.0,29.90,SSW,202,2.0,2.0,96,0.00,,---,0.10,VWS V14.01,2013-08-13 10:15:00,
2013-08-13 06:20:00,73.2,72.0,29.90,SW,227,2.0,2.0,96,0.00,,---,0.10,VWS V14.01,2013-08-13 10:20:00,
2013-08-13 06:25:00,73.2,72.0,29.90,SSW,200,3.0,3.0,96,0.00,,---,0.10,VWS V14.01,2013-08-13 10:25:00,
2013-08-13 06:30:00,73.2,72.0,29.90,SW,227,3.0,3.0,96,0.00,,---,0.10,VWS V14.01,2013-08-13 10:30:00,
2013-08-13 06:35:00,73.2,72.0,29.91,West,279,1.0,1.0,96,0.00,,---,0.10,VWS V14.01,2013-08-13 10:35:00,
2013-08-13 06:40:00,73.2,72.0,29.90,SW,219,1.0,3.0,96,0.00,,---,0.10,VWS V14.01,2013-08-13 10:40:00,
2013-08-13 06:45:00,73.1,71.9,29.91,SSE,163,0.0,5.0,96,0.00,,---,0.10,VWS V14.01,2013-08-13 10:45:00,
2013-08-13 06:50:00,73.2,72.0,29.91,SSW,208,0.0,2.0,96,0.00,,---,0.10,VWS V14.01,2013-08-13 10:50:00,
2013-08-13 06:55:00,73.2,72.0,29.91,WSW,241,1.0,2.0,96,0.00,,---,0.10,VWS V14.01,2013-08-13 10:55:00,
2013-08-13 07:00:00,73.2,72.0,29.91,SSW,211,0.0,4.0,96,0.00,,---,0.10,VWS V14.01,2013-08-13 11:00:00,
2013-08-13 07:05:00,73.2,72.0,29.91,SSE,150,1.0,1.0,96,0.00,,---,0.10,VWS V14.01,2013-08-13 11:05:00,
2013-08-13 07:10:00,73.2,72.0,29.91,WNW,283,1.0,2.0,96,0.00,,---,0.10,VWS V14.01,2013-08-13 11:10:00,
2013-08-13 07:15:00,73.3,72.1,29.91,WSW,248,2.0,3.0,96,0.00,,---,0.10,VWS V14.01,2013-08-13 11:15:00,
2013-08-13 07:20:00,73.3,72.1,29.91,SW,223,2.0,2.0,96,0.00,,---,0.10,VWS V14.01,2013-08-13 11:20:00,
2013-08-13 07:25:00,73.4,72.2,29.91,SSW,203,5.0,5.0,96,0.00,,---,0.10,VWS V14.01,2013-08-13 11:25:00,
2013-08-13 07:30:00,73.5,72.3,29.91,SW,219,3.0,4.0,96,0.00,,---,0.10,VWS V14.01,2013-08-13 11:30:00,
2013-08-13 07:35:00,73.5,72.0,29.91,SW,225,3.0,6.0,95,0.00,,---,0.10,VWS V14.01,2013-08-13 11:35:00,
2013-08-13 07:40:00,73.7,72.5,29.90,SW,232,2.0,2.0,96,0.00,,---,0.10,VWS V14.01,2013-08-13 11:40:00,
2013-08-13 07:45:00,73.9,72.4,29.90,WSW,248,2.0,3.0,95,0.00,,---,0.10,VWS V14.01,2013-08-13 11:45:00,
2013-08-13 07:50:00,74.0,72.5,29.90,WSW,237,0.0,1.0,95,0.00,,---,0.10,VWS V14.01,2013-08-13 11:50:00,
2013-08-13 07:55:00,74.2,72.7,29.91,SW,232,4.0,5.0,95,0.00,,---,0.10,VWS V14.01,2013-08-13 11:55:00,
2013-08-13 08:00:00,74.4,72.9,29.91,SW,219,4.0,5.0,95,0.00,,---,0.10,VWS V14.01,2013-08-13 12:00:00,
2013-08-13 08:05:00,74.5,73.0,29.91,West,267,3.0,5.0,95,0.00,,---,0.10,VWS V14.01,2013-08-13 12:05:00,
2013-08-13 08:10:00,74.6,73.1,29.91,West,271,1.0,3.0,95,0.00,,---,0.10,VWS V14.01,2013-08-13 12:10:00,
2013-08-13 08:15:00,74.8,73.0,29.91,SW,215,2.0,4.0,94,0.00,,---,0.10,VWS V14.01,2013-08-13 12:15:00,
2013-08-13 08:20:00,74.9,73.1,29.91,SW,233,4.0,6.0,94,0.00,,---,0.10,VWS V14.01,2013-08-13 12:20:00,
2013-08-13 08:25:00,75.1,73.3,29.91,WSW,257,3.0,3.0,94,0.00,,---,0.10,VWS V14.01,2013-08-13 12:25:00,
2013-08-13 08:30:00,75.4,73.6,29.91,West,264,1.0,4.0,94,0.00,,---,0.10,VWS V14.01,2013-08-13 12:30:00,
2013-08-13 08:35:00,75.6,73.4,29.91,WSW,238,5.0,8.0,93,0.00,,---,0.10,VWS V14.01,2013-08-13 12:35:00,
2013-08-13 08:40:00,75.9,73.7,29.91,WSW,245,0.0,3.0,93,0.00,,---,0.10,VWS V14.01,2013-08-13 12:40:00,
2013-08-13 08:45:00,76.3,74.1,29.91,SSW,196,1.0,3.0,93,0.00,,---,0.10,VWS V14.01,2013-08-13 12:45:00,
2013-08-13 08:50:00,76.7,74.2,29.91,WSW,248,3.0,5.0,92,0.00,,---,0.10,VWS V14.01,2013-08-13 12:50:00,
2013-08-13 08:55:00,76.9,74.1,29.91,West,281,3.0,4.0,91,0.00,,---,0.10,VWS V14.01,2013-08-13 12:55:00,
2013-08-13 09:00:00,77.0,74.5,29.91,West,260,4.0,4.0,92,0.00,,---,0.10,VWS V14.01,2013-08-13 13:00:00,
2013-08-13 09:05:00,77.4,74.6,29.91,SSE,159,5.0,6.0,91,0.00,,---,0.10,VWS V14.01,2013-08-13 13:05:00,
2013-08-13 09:09:00,77.8,74.6,29.91,WSW,258,3.0,3.0,90,0.00,,---,0.10,VWS V14.01,2013-08-13 13:09:00,
2013-08-13 09:14:00,78.1,74.6,29.91,WSW,248,4.0,7.0,89,0.00,,---,0.10,VWS V14.01,2013-08-13 13:14:00,
2013-08-13 09:19:00,78.2,74.7,29.92,WNW,286,4.0,5.0,89,0.00,,---,0.10,VWS V14.01,2013-08-13 13:19:00,
2013-08-13 09:24:00,78.4,74.9,29.92,WNW,298,6.0,6.0,89,0.00,,---,0.10,VWS V14.01,2013-08-13 13:24:00,
2013-08-13 09:29:00,78.3,74.5,29.92,WNW,287,3.0,6.0,88,0.00,,---,0.10,VWS V14.01,2013-08-13 13:29:00,
2013-08-13 09:34:00,78.4,74.6,29.92,NW,305,2.0,6.0,88,0.00,,---,0.10,VWS V14.01,2013-08-13 13:34:00,
2013-08-13 09:39:00,78.6,75.1,29.92,SW,234,4.0,4.0,89,0.00,,---,0.10,VWS V14.01,2013-08-13 13:39:00,
2013-08-13 09:44:00,78.7,74.5,29.92,West,275,2.0,6.0,87,0.00,,---,0.10,VWS V14.01,2013-08-13 13:44:00,
2013-08-13 09:49:00,78.8,74.9,29.92,West,277,6.0,6.0,88,0.00,,---,0.10,VWS V14.01,2013-08-13 13:49:00,
2013-08-13 09:54:00,79.0,75.2,29.92,West,261,3.0,3.0,88,0.00,,---,0.10,VWS V14.01,2013-08-13 13:54:00,
2013-08-13 09:59:00,79.3,75.1,29.92,West,264,3.0,4.0,87,0.00,,---,0.10,VWS V14.01,2013-08-13 13:59:00,
2013-08-13 10:04:00,79.5,75.3,29.92,WNW,291,3.0,3.0,87,0.00,,---,0.10,VWS V14.01,2013-08-13 14:04:00,
2013-08-13 10:09:00,79.6,75.1,29.92,ESE,121,1.0,4.0,86,0.00,,---,0.10,VWS V14.01,2013-08-13 14:09:00,
2013-08-13 10:14:00,79.6,74.7,29.92,West,272,1.0,4.0,85,0.00,,---,0.10,VWS V14.01,2013-08-13 14:14:00,
2013-08-13 10:19:00,79.5,74.6,29.92,SW,228,4.0,5.0,85,0.00,,---,0.10,VWS V14.01,2013-08-13 14:19:00,
2013-08-13 10:24:00,79.3,74.8,29.92,West,281,2.0,4.0,86,0.00,,---,0.10,VWS V14.01,2013-08-13 14:24:00,
2013-08-13 10:29:00,79.4,75.2,29.92,West,281,3.0,5.0,87,0.00,,---,0.10,VWS V14.01,2013-08-13 14:29:00,
2013-08-13 10:34:00,79.7,75.2,29.92,SW,215,3.0,8.0,86,0.00,,---,0.10,VWS V14.01,2013-08-13 14:34:00,
2013-08-13 10:39:00,80.0,75.4,29.92,WSW,256,4.0,4.0,86,0.00,,---,0.10,VWS V14.01,2013-08-13 14:39:00,
2013-08-13 10:44:00,80.3,75.4,29.92,West,276,5.0,5.0,85,0.00,,---,0.10,VWS V14.01,2013-08-13 14:44:00,
2013-08-13 10:49:00,80.9,76.0,29.92,WNW,286,11.0,11.0,85,0.00,,---,0.10,VWS V14.01,2013-08-13 14:49:00,
2013-08-13 10:54:00,80.9,75.3,29.92,WNW,302,4.0,6.0,83,0.00,,---,0.10,VWS V14.01,2013-08-13 14:54:00,
2013-08-13 10:59:00,81.1,75.1,29.92,WSW,253,6.0,10.0,82,0.00,,---,0.10,VWS V14.01,2013-08-13 14:59:00,
2013-08-13 11:04:00,81.5,75.8,29.92,WNW,288,6.0,6.0,83,0.00,,---,0.10,VWS V14.01,2013-08-13 15:04:00,
2013-08-13 11:09:00,81.5,75.5,29.92,WNW,289,6.0,10.0,82,0.00,,---,0.10,VWS V14.01,2013-08-13 15:09:00,
2013-08-13 11:14:00,81.8,75.4,29.93,WNW,291,5.0,7.0,81,0.00,,---,0.10,VWS V14.01,2013-08-13 15:14:00,
2013-08-13 11:19:00,81.9,75.1,29.92,West,281,9.0,11.0,80,0.00,,---,0.10,VWS V14.01,2013-08-13 15:19:00,
2013-08-13 11:24:00,81.9,75.5,29.92,West,259,5.0,8.0,81,0.00,,---,0.10,VWS V14.01,2013-08-13 15:24:00,
2013-08-13 11:29:00,82.3,75.9,29.92,West,272,1.0,6.0,81,0.00,,---,0.10,VWS V14.01,2013-08-13 15:29:00,
2013-08-13 11:34:00,82.4,76.0,29.92,WNW,291,7.0,7.0,81,0.00,,---,0.10,VWS V14.01,2013-08-13 15:34:00,
2013-08-13 11:39:00,82.5,75.3,29.92,WSW,252,6.0,11.0,79,0.00,,---,0.10,VWS V14.01,2013-08-13 15:39:00,
2013-08-13 11:44:00,82.6,75.4,29.91,WNW,287,1.0,9.0,79,0.00,,---,0.10,VWS V14.01,2013-08-13 15:44:00,
2013-08-13 11:50:00,82.6,75.8,29.91,West,280,4.0,7.0,80,0.00,,---,0.10,VWS V14.01,2013-08-13 15:50:00,
2013-08-13 11:54:00,82.8,76.0,29.91,WNW,282,3.0,8.0,80,0.00,,---,0.10,VWS V14.01,2013-08-13 15:54:00,
2013-08-13 11:59:00,83.1,75.9,29.91,NW,319,3.0,6.0,79,0.00,,---,0.10,VWS V14.01,2013-08-13 15:59:00,
2013-08-13 12:04:00,83.6,76.4,29.91,NNW,347,2.0,3.0,79,0.00,,---,0.10,VWS V14.01,2013-08-13 16:04:00,
2013-08-13 12:09:00,83.9,75.9,29.91,West,259,6.0,6.0,77,0.00,,---,0.10,VWS V14.01,2013-08-13 16:09:00,
2013-08-13 12:14:00,84.1,75.7,29.91,WNW,282,8.0,8.0,76,0.00,,---,0.10,VWS V14.01,2013-08-13 16:14:00,
2013-08-13 12:19:00,84.0,76.0,29.90,West,279,7.0,8.0,77,0.00,,---,0.10,VWS V14.01,2013-08-13 16:19:00,
2013-08-13 12:24:00,84.3,75.9,29.90,West,279,9.0,10.0,76,0.00,,---,0.10,VWS V14.01,2013-08-13 16:24:00,
2013-08-13 12:29:00,84.6,76.6,29.89,West,272,3.0,3.0,77,0.00,,---,0.10,VWS V14.01,2013-08-13 16:29:00,
2013-08-13 12:35:00,85.3,76.5,29.89,WNW,298,13.0,13.0,75,0.00,,---,0.10,VWS V14.01,2013-08-13 16:35:00,
2013-08-13 12:40:00,84.9,75.7,29.89,WSW,250,9.0,9.0,74,0.00,,---,0.10,VWS V14.01,2013-08-13 16:40:00,
2013-08-13 12:44:00,85.5,76.3,29.89,West,269,8.0,8.0,74,0.00,,---,0.10,VWS V14.01,2013-08-13 16:44:00,
2013-08-13 12:49:00,85.0,75.8,29.88,West,265,10.0,12.0,74,0.00,,---,0.10,VWS V14.01,2013-08-13 16:49:00,
2013-08-13 12:54:00,84.8,76.0,29.88,WNW,286,4.0,11.0,75,0.00,,---,0.10,VWS V14.01,2013-08-13 16:54:00,
2013-08-13 12:59:00,85.1,76.3,29.88,WNW,291,6.0,7.0,75,0.00,,---,0.10,VWS V14.01,2013-08-13 16:59:00,
2013-08-13 13:04:00,85.6,76.4,29.88,NE,38,2.0,6.0,74,0.00,,---,0.10,VWS V14.01,2013-08-13 17:04:00,
2013-08-13 13:12:00,86.1,76.4,29.87,WSW,244,3.0,4.0,73,0.00,,---,0.10,VWS V14.01,2013-08-13 17:12:00,
2013-08-13 13:17:00,86.7,75.8,29.87,West,273,6.0,6.0,70,0.00,,---,0.10,VWS V14.01,2013-08-13 17:17:00,
2013-08-13 13:22:00,86.4,75.5,29.87,WSW,258,6.0,7.0,70,0.00,,---,0.10,VWS V14.01,2013-08-13 17:22:00,
2013-08-13 13:27:00,86.5,76.0,29.87,WNW,286,1.0,4.0,71,0.00,,---,0.10,VWS V14.01,2013-08-13 17:27:00,
2013-08-13 13:32:00,86.1,75.2,29.87,NW,312,8.0,9.0,70,0.00,,---,0.10,VWS V14.01,2013-08-13 17:32:00,
2013-08-13 13:37:00,86.0,75.1,29.87,WNW,287,8.0,9.0,70,0.00,,---,0.10,VWS V14.01,2013-08-13 17:37:00,
2013-08-13 13:42:00,85.9,75.8,29.86,SE,130,2.0,5.0,72,0.00,,---,0.10,VWS V14.01,2013-08-13 17:42:00,
2013-08-13 13:47:00,86.4,75.5,29.86,WNW,300,6.0,6.0,70,0.00,,---,0.10,VWS V14.01,2013-08-13 17:47:00,
2013-08-13 13:52:00,86.6,76.1,29.86,WSW,248,5.0,7.0,71,0.00,,---,0.10,VWS V14.01,2013-08-13 17:52:00,
2013-08-13 13:57:00,86.5,75.1,29.86,West,269,10.0,10.0,69,0.00,,---,0.10,VWS V14.01,2013-08-13 17:57:00,
2013-08-13 14:02:00,86.6,76.1,29.86,West,259,7.0,10.0,71,0.00,,---,0.10,VWS V14.01,2013-08-13 18:02:00,
2013-08-13 14:07:00,87.0,75.6,29.85,WNW,292,6.0,12.0,69,0.00,,---,0.10,VWS V14.01,2013-08-13 18:07:00,
2013-08-13 14:12:00,87.3,75.4,29.85,WSW,241,5.0,10.0,68,0.00,,---,0.10,VWS V14.01,2013-08-13 18:12:00,
2013-08-13 14:17:00,87.6,75.7,29.85,NNW,330,4.0,7.0,68,0.00,,---,0.10,VWS V14.01,2013-08-13 18:17:00,
2013-08-13 14:22:00,87.4,75.6,29.85,WNW,288,3.0,5.0,68,0.00,,---,0.10,VWS V14.01,2013-08-13 18:22:00,
2013-08-13 14:27:00,87.9,76.0,29.84,West,267,8.0,12.0,68,0.00,,---,0.10,VWS V14.01,2013-08-13 18:27:00,
2013-08-13 14:32:00,87.9,75.6,29.84,West,273,4.0,5.0,67,0.00,,---,0.10,VWS V14.01,2013-08-13 18:32:00,
2013-08-13 14:37:00,88.2,76.3,29.84,West,280,3.0,8.0,68,0.00,,---,0.10,VWS V14.01,2013-08-13 18:37:00,
2013-08-13 14:42:00,88.1,75.8,29.84,West,269,4.0,5.0,67,0.00,,---,0.10,VWS V14.01,2013-08-13 18:42:00,
2013-08-13 14:47:00,87.7,75.4,29.84,West,268,6.0,7.0,67,0.00,,---,0.10,VWS V14.01,2013-08-13 18:47:00,
2013-08-13 14:52:00,87.8,75.9,29.84,West,263,6.0,6.0,68,0.00,,---,0.10,VWS V14.01,2013-08-13 18:52:00,
2013-08-13 14:57:00,87.8,75.5,29.84,West,281,10.0,11.0,67,0.00,,---,0.10,VWS V14.01,2013-08-13 18:57:00,
2013-08-13 15:02:00,87.3,75.0,29.84,WNW,287,5.0,9.0,67,0.00,,---,0.10,VWS V14.01,2013-08-13 19:02:00,
2013-08-13 15:07:00,86.9,75.5,29.83,WNW,300,3.0,6.0,69,0.00,,---,0.10,VWS V14.01,2013-08-13 19:07:00,
2013-08-13 15:12:00,86.8,75.4,29.83,SSW,210,3.0,5.0,69,0.00,,---,0.10,VWS V14.01,2013-08-13 19:12:00,
2013-08-13 15:17:00,86.8,75.8,29.83,West,276,2.0,4.0,70,0.00,,---,0.10,VWS V14.01,2013-08-13 19:17:00,
2013-08-13 15:22:00,86.9,75.9,29.83,West,259,7.0,8.0,70,0.00,,---,0.10,VWS V14.01,2013-08-13 19:22:00,
2013-08-13 15:27:00,86.9,76.4,29.83,West,281,3.0,5.0,71,0.00,,---,0.10,VWS V14.01,2013-08-13 19:27:00,
2013-08-13 15:32:00,87.2,76.7,29.83,WNW,295,5.0,6.0,71,0.00,,---,0.10,VWS V14.01,2013-08-13 19:32:00,
2013-08-13 15:37:00,87.3,76.8,29.82,WNW,284,4.0,5.0,71,0.00,,---,0.10,VWS V14.01,2013-08-13 19:37:00,
2013-08-13 15:42:00,87.7,77.1,29.82,West,269,5.0,6.0,71,0.00,,---,0.10,VWS V14.01,2013-08-13 19:42:00,
2013-08-13 15:47:00,87.8,77.2,29.82,West,279,5.0,7.0,71,0.00,,---,0.10,VWS V14.01,2013-08-13 19:47:00,
2013-08-13 15:52:00,87.4,76.8,29.82,West,269,5.0,5.0,71,0.00,,---,0.10,VWS V14.01,2013-08-13 19:52:00,
2013-08-13 15:57:00,87.5,76.1,29.82,West,270,9.0,11.0,69,0.00,,---,0.10,VWS V14.01,2013-08-13 19:57:00,
2013-08-13 16:02:00,87.3,76.3,29.82,WNW,286,2.0,4.0,70,0.00,,---,0.10,VWS V14.01,2013-08-13 20:02:00,
2013-08-13 16:07:00,87.7,76.3,29.81,WNW,287,8.0,8.0,69,0.00,,---,0.10,VWS V14.01,2013-08-13 20:07:00,
2013-08-13 16:12:00,87.9,76.5,29.81,NNW,344,2.0,3.0,69,0.00,,---,0.10,VWS V14.01,2013-08-13 20:12:00,
2013-08-13 16:17:00,88.4,76.1,29.81,NW,325,2.0,3.0,67,0.00,,---,0.10,VWS V14.01,2013-08-13 20:17:00,
2013-08-13 16:22:00,88.2,76.3,29.81,West,277,6.0,6.0,68,0.00,,---,0.10,VWS V14.01,2013-08-13 20:22:00,
2013-08-13 16:27:00,88.4,76.5,29.81,West,275,5.0,5.0,68,0.00,,---,0.10,VWS V14.01,2013-08-13 20:27:00,
2013-08-13 16:32:00,88.5,76.2,29.81,West,271,5.0,7.0,67,0.00,,---,0.10,VWS V14.01,2013-08-13 20:32:00,
2013-08-13 16:37:00,88.1,75.3,29.81,WNW,295,4.0,8.0,66,0.00,,---,0.10,VWS V14.01,2013-08-13 20:37:00,
2013-08-13 16:42:00,87.7,76.3,29.81,WSW,254,3.0,3.0,69,0.00,,---,0.10,VWS V14.01,2013-08-13 20:42:00,
2013-08-13 16:47:00,87.5,76.1,29.82,West,268,4.0,5.0,69,0.00,,---,0.10,VWS V14.01,2013-08-13 20:47:00,
2013-08-13 16:52:00,87.2,76.7,29.82,West,273,2.0,3.0,71,0.00,,---,0.10,VWS V14.01,2013-08-13 20:52:00,
2013-08-13 16:57:00,86.5,76.4,29.83,WSW,241,9.0,10.0,72,0.00,,---,0.10,VWS V14.01,2013-08-13 20:57:00,
2013-08-13 17:02:00,85.3,76.5,29.83,South,182,2.0,6.0,75,0.03,,---,0.13,VWS V14.01,2013-08-13 21:02:00,
2013-08-13 17:07:00,81.9,74.0,29.82,NE,49,0.0,0.0,77,0.11,,---,0.21,VWS V14.01,2013-08-13 21:07:00,
2013-08-13 17:12:00,80.7,74.0,29.81,ENE,57,0.0,0.0,80,0.11,,---,0.21,VWS V14.01,2013-08-13 21:12:00,
2013-08-13 17:17:00,80.5,74.5,29.81,NE,40,0.0,0.0,82,0.11,,---,0.21,VWS V14.01,2013-08-13 21:17:00,
2013-08-13 17:22:00,80.7,75.1,29.80,NE,40,0.0,0.0,83,0.11,,---,0.21,VWS V14.01,2013-08-13 21:22:00,
2013-08-13 17:27:00,82.1,77.5,29.80,NE,40,0.0,1.0,86,0.11,,---,0.21,VWS V14.01,2013-08-13 21:27:00,
2013-08-13 17:32:00,83.6,77.9,29.80,SW,229,0.0,1.0,83,0.11,,---,0.21,VWS V14.01,2013-08-13 21:32:00,
2013-08-13 17:37:00,84.7,77.8,29.81,WSW,254,1.0,1.0,80,0.11,,---,0.21,VWS V14.01,2013-08-13 21:37:00,
2013-08-13 17:42:00,85.2,77.2,29.81,West,260,0.0,1.0,77,0.11,,---,0.21,VWS V14.01,2013-08-13 21:42:00,
2013-08-13 17:47:00,85.6,77.6,29.81,WSW,257,1.0,1.0,77,0.11,,---,0.21,VWS V14.01,2013-08-13 21:47:00,
2013-08-13 17:52:00,86.0,78.3,29.81,West,260,0.0,0.0,78,0.11,,---,0.21,VWS V14.01,2013-08-13 21:52:00,
2013-08-13 17:57:00,85.6,78.0,29.81,WNW,290,2.0,2.0,78,0.11,,---,0.21,VWS V14.01,2013-08-13 21:57:00,
2013-08-13 18:02:00,85.4,77.8,29.81,WNW,289,1.0,2.0,78,0.08,,---,0.21,VWS V14.01,2013-08-13 22:02:00,
2013-08-13 18:07:00,85.1,77.9,29.81,West,280,3.0,3.0,79,0.00,,---,0.21,VWS V14.01,2013-08-13 22:07:00,
2013-08-13 18:08:00,85.1,77.9,29.81,WNW,292,3.0,4.0,79,0.00,,---,0.21,VWS V14.01,2013-08-13 22:08:00,
2013-08-13 18:09:00,85.1,78.2,29.81,West,270,2.0,2.0,80,0.00,,---,0.21,VWS V14.01,2013-08-13 22:09:00,
2013-08-13 18:10:00,85.2,78.3,29.81,West,270,1.0,2.0,80,0.00,,---,0.21,VWS V14.01,2013-08-13 22:10:00,
2013-08-13 18:11:00,85.1,77.9,29.81,West,270,1.0,2.0,79,0.00,,---,0.21,VWS V14.01,2013-08-13 22:11:00,
2013-08-13 18:12:00,85.2,78.3,29.81,West,270,1.0,2.0,80,0.00,,---,0.21,VWS V14.01,2013-08-13 22:12:00,
2013-08-13 18:13:00,85.2,78.3,29.81,WSW,248,1.0,2.0,80,0.00,,---,0.21,VWS V14.01,2013-08-13 22:13:00,
2013-08-13 18:14:00,85.2,78.3,29.81,West,270,1.0,2.0,80,0.00,,---,0.21,VWS V14.01,2013-08-13 22:14:00,
2013-08-13 18:15:00,85.2,78.3,29.81,West,270,2.0,3.0,80,0.00,,---,0.21,VWS V14.01,2013-08-13 22:15:00,
2013-08-13 18:16:00,85.2,78.3,29.80,West,270,1.0,2.0,80,0.00,,---,0.21,VWS V14.01,2013-08-13 22:16:00,
2013-08-13 18:17:00,85.3,78.4,29.80,West,270,1.0,2.0,80,0.00,,---,0.21,VWS V14.01,2013-08-13 22:17:00,
2013-08-13 18:18:00,85.4,78.5,29.80,West,270,1.0,3.0,80,0.00,,---,0.21,VWS V14.01,2013-08-13 22:18:00,
2013-08-13 18:19:00,85.4,78.5,29.80,West,270,3.0,4.0,80,0.00,,---,0.21,VWS V14.01,2013-08-13 22:19:00,
2013-08-13 18:20:00,85.4,78.2,29.80,West,270,2.0,2.0,79,0.00,,---,0.21,VWS V14.01,2013-08-13 22:20:00,
2013-08-13 18:21:00,85.4,78.5,29.81,West,270,1.0,2.0,80,0.00,,---,0.21,VWS V14.01,2013-08-13 22:21:00,
2013-08-13 18:22:00,85.4,78.5,29.81,WSW,248,2.0,3.0,80,0.00,,---,0.21,VWS V14.01,2013-08-13 22:22:00,
2013-08-13 18:23:00,85.4,78.5,29.81,West,270,2.0,2.0,80,0.00,,---,0.21,VWS V14.01,2013-08-13 22:23:00,
2013-08-13 18:24:00,85.4,78.5,29.81,West,270,3.0,4.0,80,0.00,,---,0.21,VWS V14.01,2013-08-13 22:24:00,
2013-08-13 18:25:00,85.4,78.5,29.81,West,270,3.0,4.0,80,0.00,,---,0.21,VWS V14.01,2013-08-13 22:25:00,
2013-08-13 18:26:00,85.4,78.5,29.81,West,270,1.0,2.0,80,0.00,,---,0.21,VWS V14.01,2013-08-13 22:26:00,
2013-08-13 18:27:00,85.5,78.6,29.81,WSW,248,1.0,1.0,80,0.00,,---,0.21,VWS V14.01,2013-08-13 22:27:00,
2013-08-13 18:28:00,85.5,78.6,29.81,WSW,248,2.0,3.0,80,0.00,,---,0.21,VWS V14.01,2013-08-13 22:28:00,
2013-08-13 18:29:00,85.5,78.2,29.81,West,270,3.0,4.0,79,0.00,,---,0.21,VWS V14.01,2013-08-13 22:29:00,
2013-08-13 18:30:00,85.5,78.6,29.81,West,270,2.0,3.0,80,0.00,,---,0.21,VWS V14.01,2013-08-13 22:30:00,
2013-08-13 18:31:00,85.6,78.7,29.81,West,270,1.0,2.0,80,0.00,,---,0.21,VWS V14.01,2013-08-13 22:31:00,
2013-08-13 18:32:00,85.6,78.3,29.81,West,270,3.0,4.0,79,0.00,,---,0.21,VWS V14.01,2013-08-13 22:32:00,
2013-08-13 18:33:00,85.6,78.3,29.80,West,270,4.0,5.0,79,0.00,,---,0.21,VWS V14.01,2013-08-13 22:33:00,
2013-08-13 18:34:00,85.6,78.3,29.81,WSW,248,3.0,4.0,79,0.00,,---,0.21,VWS V14.01,2013-08-13 22:34:00,
2013-08-13 18:35:00,85.5,78.2,29.81,West,270,2.0,3.0,79,0.00,,---,0.21,VWS V14.01,2013-08-13 22:35:00,
2013-08-13 18:36:00,85.6,78.3,29.81,West,270,3.0,3.0,79,0.00,,---,0.21,VWS V14.01,2013-08-13 22:36:00,
2013-08-13 18:37:00,85.5,78.6,29.81,WNW,292,3.0,4.0,80,0.00,,---,0.21,VWS V14.01,2013-08-13 22:37:00,
2013-08-13 18:38:00,85.4,78.5,29.81,WNW,292,2.0,3.0,80,0.00,,---,0.21,VWS V14.01,2013-08-13 22:38:00,
2013-08-13 18:39:00,85.4,78.5,29.81,West,270,1.0,2.0,80,0.00,,---,0.21,VWS V14.01,2013-08-13 22:39:00,
2013-08-13 18:40:00,85.4,78.5,29.81,West,270,1.0,2.0,80,0.00,,---,0.21,VWS V14.01,2013-08-13 22:40:00,
2013-08-13 18:41:00,85.3,78.8,29.81,West,270,1.0,2.0,81,0.00,,---,0.21,VWS V14.01,2013-08-13 22:41:00,
2013-08-13 18:42:00,85.3,78.4,29.81,WNW,292,2.0,3.0,80,0.00,,---,0.21,VWS V14.01,2013-08-13 22:42:00,
2013-08-13 18:43:00,85.2,78.3,29.81,WSW,248,2.0,3.0,80,0.00,,---,0.21,VWS V14.01,2013-08-13 22:43:00,
2013-08-13 18:44:00,85.2,78.3,29.81,WSW,248,1.0,1.0,80,0.00,,---,0.21,VWS V14.01,2013-08-13 22:44:00,
2013-08-13 18:45:00,85.2,78.3,29.81,West,270,1.0,2.0,80,0.00,,---,0.21,VWS V14.01,2013-08-13 22:45:00,
2013-08-13 18:46:00,85.2,78.3,29.80,WNW,292,0.0,1.0,80,0.00,,---,0.21,VWS V14.01,2013-08-13 22:46:00,
2013-08-13 18:47:00,85.2,78.3,29.80,West,270,1.0,2.0,80,0.00,,---,0.21,VWS V14.01,2013-08-13 22:47:00,
2013-08-13 18:48:00,85.1,78.6,29.80,West,270,0.0,1.0,81,0.00,,---,0.21,VWS V14.01,2013-08-13 22:48:00,
2013-08-13 18:49:00,85.1,78.6,29.80,WSW,248,0.0,1.0,81,0.00,,---,0.21,VWS V14.01,2013-08-13 22:49:00,
2013-08-13 18:50:00,85.1,78.6,29.80,WSW,248,0.0,1.0,81,0.00,,---,0.21,VWS V14.01,2013-08-13 22:50:00,
2013-08-13 18:51:00,85.1,78.6,29.80,WSW,248,1.0,1.0,81,0.00,,---,0.21,VWS V14.01,2013-08-13 22:51:00,
2013-08-13 18:52:00,85.0,78.5,29.79,WSW,248,0.0,1.0,81,0.00,,---,0.21,VWS V14.01,2013-08-13 22:52:00,
2013-08-13 18:53:00,85.0,78.5,29.79,WSW,248,0.0,0.0,81,0.00,,---,0.21,VWS V14.01,2013-08-13 22:53:00,
2013-08-13 18:54:00,85.0,78.9,29.79,WSW,248,0.0,0.0,82,0.00,,---,0.21,VWS V14.01,2013-08-13 22:54:00,
2013-08-13 18:55:00,84.9,78.4,29.79,WSW,248,0.0,0.0,81,0.00,,---,0.21,VWS V14.01,2013-08-13 22:55:00,
2013-08-13 18:56:00,84.9,78.8,29.79,WSW,248,0.0,0.0,82,0.00,,---,0.21,VWS V14.01,2013-08-13 22:56:00,
2013-08-13 18:57:00,84.9,78.8,29.79,WSW,248,0.0,1.0,82,0.00,,---,0.21,VWS V14.01,2013-08-13 22:57:00,
2013-08-13 18:58:00,84.8,78.7,29.80,WSW,248,0.0,1.0,82,0.00,,---,0.21,VWS V14.01,2013-08-13 22:58:00,
2013-08-13 18:59:00,84.8,78.7,29.80,WSW,248,0.0,0.0,82,0.00,,---,0.21,VWS V14.01,2013-08-13 22:59:00,
2013-08-13 19:00:00,84.8,78.7,29.80,WSW,248,0.0,0.0,82,0.00,,---,0.21,VWS V14.01,2013-08-13 23:00:00,
2013-08-13 19:01:00,84.7,78.2,29.80,WSW,248,0.0,0.0,81,0.00,,---,0.21,VWS V14.01,2013-08-13 23:01:00,
2013-08-13 19:02:00,84.6,78.5,29.80,West,270,0.0,1.0,82,0.00,,---,0.21,VWS V14.01,2013-08-13 23:02:00,
2013-08-13 19:03:00,84.6,78.5,29.80,West,270,0.0,1.0,82,0.00,,---,0.21,VWS V14.01,2013-08-13 23:03:00,
2013-08-13 19:04:00,84.5,78.4,29.80,West,270,0.0,1.0,82,0.00,,---,0.21,VWS V14.01,2013-08-13 23:04:00,
2013-08-13 19:05:00,84.5,78.4,29.80,NW,315,1.0,1.0,82,0.00,,---,0.21,VWS V14.01,2013-08-13 23:05:00,
2013-08-13 19:06:00,84.4,78.3,29.80,NW,315,1.0,2.0,82,0.00,,---,0.21,VWS V14.01,2013-08-13 23:06:00,
2013-08-13 19:07:00,84.3,77.8,29.81,WNW,292,5.0,10.0,81,0.00,,---,0.21,VWS V14.01,2013-08-13 23:07:00,
2013-08-13 19:08:00,83.9,75.9,29.81,West,270,7.0,13.0,77,0.01,,---,0.22,VWS V14.01,2013-08-13 23:08:00,
2013-08-13 19:09:00,83.5,76.3,29.82,WNW,292,4.0,11.0,79,0.06,,---,0.27,VWS V14.01,2013-08-13 23:09:00,
2013-08-13 19:10:00,82.5,74.2,29.83,WNW,292,11.0,17.0,76,0.11,,---,0.32,VWS V14.01,2013-08-13 23:10:00,
2013-08-13 19:11:00,81.5,74.7,29.83,West,270,7.0,15.0,80,0.17,,---,0.38,VWS V14.01,2013-08-13 23:11:00,
2013-08-13 19:12:00,80.4,74.0,29.83,West,270,8.0,13.0,81,0.23,,---,0.44,VWS V14.01,2013-08-13 23:12:00,
2013-08-13 19:13:00,79.4,73.4,29.83,West,270,7.0,14.0,82,0.28,,---,0.49,VWS V14.01,2013-08-13 23:13:00,
2013-08-13 19:14:00,78.8,73.2,29.83,West,270,5.0,8.0,83,0.33,,---,0.54,VWS V14.01,2013-08-13 23:14:00,
2013-08-13 19:15:00,78.1,72.9,29.83,WSW,248,2.0,4.0,84,0.34,,---,0.55,VWS V14.01,2013-08-13 23:15:00,
2013-08-13 19:16:00,77.6,72.7,29.83,WNW,292,5.0,7.0,85,0.36,,---,0.57,VWS V14.01,2013-08-13 23:16:00,
2013-08-13 19:17:00,77.2,73.0,29.83,WNW,292,4.0,7.0,87,0.38,,---,0.59,VWS V14.01,2013-08-13 23:17:00,
2013-08-13 19:18:00,76.8,73.0,29.83,WSW,248,4.0,5.0,88,0.39,,---,0.60,VWS V14.01,2013-08-13 23:18:00,
2013-08-13 19:19:00,76.6,73.1,29.83,WSW,248,2.0,4.0,89,0.41,,---,0.62,VWS V14.01,2013-08-13 23:19:00,
2013-08-13 19:20:00,76.4,72.9,29.83,SSW,202,1.0,2.0,89,0.41,,---,0.62,VWS V14.01,2013-08-13 23:20:00,
2013-08-13 19:21:00,76.3,73.2,29.82,SSW,202,1.0,3.0,90,0.41,,---,0.62,VWS V14.01,2013-08-13 23:21:00,
2013-08-13 19:22:00,76.2,73.1,29.82,SSE,158,2.0,3.0,90,0.42,,---,0.63,VWS V14.01,2013-08-13 23:22:00,
2013-08-13 19:23:00,76.1,73.3,29.82,SW,225,4.0,6.0,91,0.42,,---,0.63,VWS V14.01,2013-08-13 23:23:00,
2013-08-13 19:24:00,76.1,73.3,29.82,WSW,248,4.0,7.0,91,0.42,,---,0.63,VWS V14.01,2013-08-13 23:24:00,
2013-08-13 19:25:00,76.0,73.2,29.82,WSW,248,3.0,5.0,91,0.42,,---,0.63,VWS V14.01,2013-08-13 23:25:00,
2013-08-13 19:26:00,76.0,73.2,29.83,WSW,248,4.0,7.0,91,0.42,,---,0.63,VWS V14.01,2013-08-13 23:26:00,
2013-08-13 19:27:00,75.9,73.4,29.83,WSW,248,2.0,4.0,92,0.42,,---,0.63,VWS V14.01,2013-08-13 23:27:00,
2013-08-13 19:28:00,75.9,73.4,29.83,SW,225,1.0,3.0,92,0.42,,---,0.63,VWS V14.01,2013-08-13 23:28:00,
2013-08-13 19:29:00,75.8,73.3,29.83,SW,225,5.0,10.0,92,0.42,,---,0.63,VWS V14.01,2013-08-13 23:29:00,
2013-08-13 19:30:00,75.7,73.2,29.83,SW,225,3.0,4.0,92,0.42,,---,0.63,VWS V14.01,2013-08-13 23:30:00,
2013-08-13 19:31:00,75.6,73.1,29.83,West,270,2.0,5.0,92,0.42,,---,0.63,VWS V14.01,2013-08-13 23:31:00,
2013-08-13 19:32:00,75.5,73.0,29.83,South,180,3.0,6.0,92,0.42,,---,0.63,VWS V14.01,2013-08-13 23:32:00,
2013-08-13 19:33:00,75.4,72.9,29.83,WSW,248,3.0,7.0,92,0.42,,---,0.63,VWS V14.01,2013-08-13 23:33:00,
2013-08-13 19:34:00,75.3,72.8,29.83,SSW,202,3.0,7.0,92,0.42,,---,0.63,VWS V14.01,2013-08-13 23:34:00,
2013-08-13 19:35:00,75.1,72.6,29.83,WSW,248,2.0,7.0,92,0.42,,---,0.63,VWS V14.01,2013-08-13 23:35:00,
2013-08-13 19:36:00,75.1,72.6,29.83,WSW,248,3.0,6.0,92,0.42,,---,0.63,VWS V14.01,2013-08-13 23:36:00,
2013-08-13 19:37:00,74.9,72.1,29.83,South,180,5.0,8.0,91,0.42,,---,0.63,VWS V14.01,2013-08-13 23:37:00,
2013-08-13 19:38:00,74.8,72.0,29.83,SSW,202,4.0,6.0,91,0.42,,---,0.63,VWS V14.01,2013-08-13 23:38:00,
2013-08-13 19:39:00,74.6,71.8,29.83,SW,225,3.0,6.0,91,0.42,,---,0.63,VWS V14.01,2013-08-13 23:39:00,
2013-08-13 19:40:00,74.6,72.1,29.83,WSW,248,3.0,6.0,92,0.42,,---,0.63,VWS V14.01,2013-08-13 23:40:00,
2013-08-13 19:41:00,74.6,71.8,29.83,West,270,2.0,3.0,91,0.42,,---,0.63,VWS V14.01,2013-08-13 23:41:00,
2013-08-13 19:42:00,74.5,72.0,29.83,WSW,248,2.0,5.0,92,0.42,,---,0.63,VWS V14.01,2013-08-13 23:42:00,
2013-08-13 19:43:00,74.5,72.0,29.83,West,270,2.0,2.0,92,0.42,,---,0.63,VWS V14.01,2013-08-13 23:43:00,
2013-08-13 19:44:00,74.5,72.0,29.83,WNW,292,2.0,4.0,92,0.42,,---,0.63,VWS V14.01,2013-08-13 23:44:00,
2013-08-13 19:54:00,74.5,72.0,29.83,WNW,292,0.0,0.0,92,0.42,,---,0.63,VWS V14.01,2013-08-13 23:54:00,
2013-08-13 19:59:00,74.7,72.6,29.82,ESE,119,0.0,0.0,93,0.42,,---,0.63,VWS V14.01,2013-08-13 23:59:00,
2013-08-13 20:04:00,74.4,72.2,29.83,SSW,199,0.0,0.0,93,0.42,,---,0.63,VWS V14.01,2013-08-14 00:04:00,
2013-08-13 20:09:00,74.3,72.2,29.82,SW,225,3.0,3.0,93,0.36,,---,0.63,VWS V14.01,2013-08-14 00:09:00,
2013-08-13 20:14:00,74.3,72.2,29.83,WSW,237,1.0,1.0,93,0.09,,---,0.63,VWS V14.01,2013-08-14 00:14:00,
2013-08-13 20:19:00,74.3,72.5,29.83,WSW,258,0.0,0.0,94,0.01,,---,0.63,VWS V14.01,2013-08-14 00:19:00,
2013-08-13 20:24:00,74.3,72.5,29.83,SW,230,0.0,0.0,94,0.00,,---,0.63,VWS V14.01,2013-08-14 00:24:00,
2013-08-13 20:29:00,74.4,72.6,29.83,SW,223,0.0,0.0,94,0.00,,---,0.63,VWS V14.01,2013-08-14 00:29:00,
2013-08-13 20:34:00,74.4,72.6,29.83,WSW,245,1.0,1.0,94,0.00,,---,0.63,VWS V14.01,2013-08-14 00:34:00,
2013-08-13 20:39:00,74.4,72.6,29.83,NW,309,1.0,1.0,94,0.00,,---,0.63,VWS V14.01,2013-08-14 00:39:00,
2013-08-13 20:44:00,74.5,72.7,29.83,NW,309,0.0,0.0,94,0.00,,---,0.63,VWS V14.01,2013-08-14 00:44:00,
2013-08-13 20:49:00,74.4,72.6,29.83,NNW,348,1.0,1.0,94,0.00,,---,0.63,VWS V14.01,2013-08-14 00:49:00,
2013-08-13 20:54:00,74.2,72.4,29.83,NNW,344,1.0,1.0,94,0.00,,---,0.63,VWS V14.01,2013-08-14 00:54:00,
2013-08-13 20:59:00,74.2,72.4,29.83,WNW,294,1.0,1.0,94,0.00,,---,0.63,VWS V14.01,2013-08-14 00:59:00,
2013-08-13 21:04:00,74.2,72.4,29.83,WNW,293,1.0,1.0,94,0.00,,---,0.63,VWS V14.01,2013-08-14 01:04:00,
2013-08-13 21:09:00,74.1,72.6,29.84,NW,311,0.0,0.0,95,0.00,,---,0.63,VWS V14.01,2013-08-14 01:09:00,
2013-08-13 21:14:00,74.2,72.7,29.84,NW,304,1.0,1.0,95,0.00,,---,0.63,VWS V14.01,2013-08-14 01:14:00,
2013-08-13 21:19:00,74.2,72.7,29.84,NNW,327,0.0,1.0,95,0.00,,---,0.63,VWS V14.01,2013-08-14 01:19:00,
2013-08-13 21:24:00,74.3,72.8,29.85,West,276,3.0,3.0,95,0.00,,---,0.63,VWS V14.01,2013-08-14 01:24:00,